FW8647 Weather Reports


time (UTC)temp
C
wind
direction
speed
KPH
gust
KPH
rain 1hr
cm
rain 24hr
cm
rain mn
cm
humidity
%
barometer
mb
20260504070326 8 201 19.3 24.1 0.00 0.00 0.00 75 1009.9
20260504050305 10 224 12.9 20.9 0.00 0.00 0.00 64 1011.4
20260504045304 10 197 19.3 20.9 0.00 0.00 0.00 64 1011.0
20260504044257 10 191 17.7 22.5 0.00 0.00 0.00 64 1011.1
20260504043257 11 195 14.5 20.9 0.00 0.00 0.00 63 1011.4
20260504042257 11 168 17.7 22.5 0.00 0.00 0.00 62 1011.4
20260504041254 11 193 14.5 20.9 0.00 0.00 0.00 61 1011.6
20260504040254 11 229 17.7 24.1 0.00 0.00 0.00 61 1011.6
20260504035253 11 222 17.7 20.9 0.00 0.00 0.00 62 1011.4
20260504034248 11 205 16.1 22.5 0.00 0.00 0.00 62 1011.4
20260504033243 11 173 14.5 17.7 0.00 0.00 0.00 62 1011.7
20260504032242 11 209 20.9 27.4 0.00 0.00 0.00 62 1011.7
20260504031237 11 200 20.9 27.4 0.00 0.00 0.00 62 1011.5
20260504030236 11 279 20.9 27.4 0.00 0.00 0.00 61 1011.4
20260504025235 11 212 25.7 35.4 0.00 0.00 0.00 59 1011.6
20260504024234 11 192 14.5 25.7 0.00 0.00 0.00 60 1011.4
20260504023233 11 202 25.7 33.8 0.00 0.00 0.00 59 1011.4
20260504022231 11 195 12.9 24.1 0.00 0.00 0.00 59 1011.7
20260504021226 11 139 24.1 33.8 0.00 0.00 0.00 59 1011.5
20260504020225 11 171 20.9 24.1 0.00 0.00 0.00 59 1011.5
20260504015224 11 216 12.9 24.1 0.00 0.00 0.00 59 1011.5
20260504014222 11 192 17.7 20.9 0.00 0.00 0.00 59 1011.5
20260504013218 11 204 25.7 33.8 0.00 0.00 0.00 58 1011.4
20260504012212 11 191 24.1 29.0 0.00 0.00 0.00 57 1011.2
20260504011211 11 179 22.5 29.0 0.00 0.00 0.00 57 1011.2
20260504010208 11 191 32.2 35.4 0.00 0.00 0.00 58 1011.1
20260504005208 12 145 19.3 25.7 0.00 0.00 0.00 57 1011.4
20260504004203 12 195 16.1 20.9 0.00 0.00 0.00 57 1011.3
20260504003202 12 206 16.1 20.9 0.00 0.00 0.00 56 1011.2
20260504002202 12 205 22.5 25.7 0.00 0.00 0.00 56 1011.0
20260504001202 12 195 19.3 27.4 0.00 0.00 0.00 55 1011.0
20260504000204 12 220 16.1 20.9 0.00 0.00 0.00 56 1011.2
20260503235203 12 188 17.7 20.9 0.00 0.00 0.00 56 1011.1
20260503234159 12 187 11.3 14.5 0.00 0.00 0.00 57 1011.4
20260503233156 12 162 12.9 14.5 0.00 0.00 0.00 57 1011.2
20260503232151 12 188 8.0 16.1 0.00 0.00 0.00 56 1011.4
20260503231151 12 155 16.1 17.7 0.00 0.00 0.00 55 1011.5
20260503230151 12 205 12.9 24.1 0.00 0.00 0.00 55 1011.3
20260503225148 12 199 9.7 14.5 0.00 0.00 0.00 55 1011.7
20260503224149 12 190 8.0 14.5 0.00 0.00 0.00 54 1011.6
20260503223148 12 192 14.5 17.7 0.00 0.00 0.00 54 1011.6
20260503222143 12 218 9.7 12.9 0.00 0.00 0.00 55 1011.8
20260503221139 12 208 9.7 16.1 0.00 0.00 0.00 55 1011.9
20260503220138 12 196 1.6 4.8 0.00 0.00 0.00 56 1011.9
20260503215137 12 138 16.1 22.5 0.00 0.00 0.00 55 1011.8
20260503214137 12 216 9.7 14.5 0.00 0.00 0.00 56 1011.9
20260503213133 12 181 9.7 14.5 0.00 0.00 0.00 53 1011.8
20260503212128 12 259 6.4 8.0 0.00 0.00 0.00 56 1012.0
20260503211127 12 266 8.0 11.3 0.00 0.00 0.00 57 1012.1
20260503210126 12 313 19.3 25.7 0.00 0.00 0.00 55 1012.4
20260503205124 12 282 14.5 16.1 0.00 0.00 0.00 55 1012.4
20260503204124 12 268 4.8 11.3 0.00 0.00 0.00 54 1012.5
20260503203119 12 253 6.4 8.0 0.00 0.00 0.00 55 1012.4
20260503202114 12 339 12.9 22.5 0.00 0.00 0.00 55 1012.3
20260503201109 12 330 16.1 25.7 0.00 0.00 0.00 54 1012.6
20260503200107 12 270 24.1 29.0 0.00 0.00 0.00 53 1012.5
20260503195105 12 230 8.0 12.9 0.00 0.00 0.00 52 1012.6
20260503194103 13 239 11.3 14.5 0.00 0.00 0.00 51 1012.6
20260503193101 13 294 22.5 27.4 0.00 0.00 0.00 51 1012.5
20260503192100 13 281 19.3 29.0 0.00 0.00 0.00 49 1012.7
20260503191059 13 242 16.1 27.4 0.00 0.00 0.00 50 1012.8
20260503190059 13 301 24.1 27.4 0.00 0.00 0.00 49 1012.9
20260503185055 13 249 20.9 27.4 0.00 0.00 0.00 46 1012.9
20260503184054 13 275 24.1 29.0 0.00 0.00 0.00 43 1012.6
20260503183054 13 187 12.9 16.1 0.00 0.00 0.00 42 1012.6
20260503182050 14 170 16.1 22.5 0.00 0.00 0.00 41 1012.5
20260503181049 14 222 17.7 22.5 0.00 0.00 0.00 41 1012.7
20260503180044 13 214 22.5 33.8 0.00 0.00 0.00 44 1013.2
20260503175044 13 211 17.7 25.7 0.00 0.00 0.00 55 1012.9
20260503174043 13 211 17.7 25.7 0.00 0.00 0.00 55 1013.2
20260503173041 13 210 35.4 40.2 0.00 0.00 0.00 58 1013.5
20260503172041 12 192 9.7 17.7 0.00 0.00 0.00 58 1013.7
20260503171041 12 192 29.0 35.4 0.00 0.00 0.00 57 1013.7
20260503131007 5 230 4.8 9.7 0.00 0.00 0.00 63 1016.7
20260503080849 -17 0.0 0.0 0.00 0.00 0.00 1016.8
20260503072840 2 201 3.2 4.8 0.00 0.00 0.00 82 1016.8
20260503071839 2 201 3.2 4.8 0.00 0.00 0.00 82 1016.8
20260503070838 2 201 1.6 3.2 0.00 0.00 0.00 81 1017.0